Date String (YYYY-MM-DD hh:mm:ss) UTC,Instrument flags,Ambient pressure (hPa),Sample flow (lpm),Bypass flow (lpm),Sample temperature (°C),Ambient temperature (°C),ASC tube jacket temperature (°C),LED temperature (°C),Box temperature (°C),Sample RH (%),Span deviation,Mass concentration (μg/m³),Mass concentration (μg/m³),Mass concentration (μg/m³)
DateTimeUTC,F1_M11,P_M11,Q1_M11,Q2_M11,T1_M11,T2_M11,T3_M11,T4_M11,T5_M11,U1_M11,ZSPAN_M11,X0_M11,X2_M11,X1_M11
2022-01-24 13:00:00,,0821.6,5.00,0.00,22.6,22.0,00.0,31.6,24.4,08.9,0000.0,0001.33,0000.97,0000.83
2022-01-24 13:01:00,,0821.7,5.00,0.00,22.6,22.0,00.0,31.6,24.4,08.9,0000.0,0001.40,0001.00,0000.85
2022-01-24 13:02:00,,0821.7,5.01,0.00,22.6,22.0,00.0,31.6,24.3,08.9,0000.0,0001.39,0000.99,0000.86
2022-01-24 13:03:00,,0821.7,4.99,0.00,22.6,21.9,00.0,31.6,24.3,08.9,0000.0,0001.48,0001.03,0000.88
2022-01-24 13:04:00,,0821.7,5.00,0.00,22.5,21.9,00.0,31.5,24.3,08.9,0000.0,0001.56,0001.07,0000.90
2022-01-24 13:05:00,,0821.7,5.00,0.00,22.5,21.9,00.0,31.5,24.2,08.8,0000.0,0001.67,0001.11,0000.91
2022-01-24 13:06:00,,0821.7,5.00,0.00,22.5,21.8,00.0,31.5,24.2,08.9,0000.0,0002.92,0001.16,0000.91
2022-01-24 13:07:00,,0821.7,5.01,0.00,22.5,21.8,00.0,31.5,24.2,09.0,0000.0,0004.09,0001.18,0000.92
2022-01-24 13:08:00,,0821.7,5.00,0.00,22.4,21.8,00.0,31.5,24.2,09.1,0000.0,0004.89,0001.25,0000.93
2022-01-24 13:09:00,,0821.6,5.00,0.00,22.4,21.8,00.0,31.5,24.2,09.1,0000.0,0005.06,0001.31,0000.93
2022-01-24 13:10:00,,0821.7,5.00,0.00,22.4,21.8,00.0,31.5,24.2,09.1,0000.0,0005.28,0001.32,0000.93
2022-01-24 13:11:00,,0821.6,5.00,0.00,22.4,21.8,00.0,31.5,24.2,09.1,0000.0,0005.55,0001.34,0000.92
2022-01-24 13:12:00,,0821.7,5.00,0.00,22.4,21.8,00.0,31.4,24.2,09.0,0000.0,0005.97,0001.37,0000.92
2022-01-24 13:13:00,,0821.6,5.00,0.00,22.4,21.8,00.0,31.4,24.2,09.1,0000.0,0006.35,0001.38,0000.92
2022-01-24 13:14:00,,0821.6,5.01,0.00,22.4,21.8,00.0,31.4,24.2,09.1,0000.0,0006.96,0001.38,0000.92
2022-01-24 13:15:00,,0821.6,5.00,0.00,22.4,21.8,00.0,31.4,24.2,09.1,0000.0,0007.05,0001.38,0000.93
2022-01-24 13:16:00,,0821.7,5.00,0.00,22.4,21.8,00.0,31.4,24.2,09.1,0000.0,0007.21,0001.40,0000.94
2022-01-24 13:17:00,,0821.6,5.01,0.00,22.4,21.8,00.0,31.4,24.2,09.1,0000.0,0006.58,0001.43,0000.97
2022-01-24 13:18:00,,0821.7,5.01,0.00,22.4,21.8,00.0,31.4,24.2,09.1,0000.0,0006.13,0001.47,0001.00
2022-01-24 13:19:00,,0821.7,4.99,0.00,22.4,21.8,00.0,31.4,24.2,09.1,0000.0,0005.97,0001.44,0001.03
2022-01-24 13:20:00,,0821.7,5.01,0.00,22.4,21.8,00.0,31.4,24.2,09.1,0000.0,0006.24,0001.43,0001.06
2022-01-24 13:21:00,,0821.8,5.00,0.00,22.4,21.7,00.0,31.4,24.1,09.1,0000.0,0006.98,0001.45,0001.06
2022-01-24 13:22:00,,0821.8,5.00,0.00,22.4,21.7,00.0,31.4,24.1,09.1,0000.0,0007.48,0001.46,0001.07
2022-01-24 13:23:00,,0821.8,5.00,0.00,22.4,21.8,00.0,31.4,24.1,09.1,0000.0,0008.02,0001.46,0001.08
2022-01-24 13:24:00,,0821.8,4.99,0.00,22.5,22.5,00.0,31.5,24.3,09.0,0000.0,0007.86,0001.48,0001.09
2022-01-24 13:25:00,,0822.0,5.00,0.00,22.6,23.1,00.0,31.5,24.6,09.0,0000.0,0007.51,0001.48,0001.12
2022-01-24 13:26:00,,0821.8,5.02,0.00,22.7,23.1,00.0,31.5,24.7,09.0,0000.0,0007.89,0001.51,0001.15
2022-01-24 13:27:00,,0821.8,4.99,0.00,22.7,23.0,00.0,31.5,24.7,08.9,0000.0,0007.96,0001.51,0001.18
2022-01-24 13:28:00,,0821.8,5.01,0.00,22.7,22.8,00.0,31.5,24.7,08.8,0000.0,0007.65,0001.50,0001.18
2022-01-24 13:29:00,,0821.9,4.98,0.00,22.7,22.7,00.0,31.5,24.6,08.8,0000.0,0007.26,0001.50,0001.18
2022-01-24 13:30:00,,0821.8,5.01,0.00,22.7,22.6,00.0,31.6,24.6,08.8,0000.0,0006.87,0001.50,0001.17
2022-01-24 13:31:00,,0821.8,5.00,0.00,22.7,22.4,00.0,31.6,24.6,08.8,0000.0,0006.37,0001.52,0001.17
2022-01-24 13:32:00,,0821.8,5.00,0.00,22.7,22.4,00.0,31.6,24.6,08.8,0000.0,0005.87,0001.55,0001.19
2022-01-24 13:33:00,,0821.8,5.00,0.00,22.7,22.3,00.0,31.6,24.6,08.9,0000.0,0004.88,0001.54,0001.22
2022-01-24 13:34:00,,0821.8,5.00,0.00,22.7,22.3,00.0,31.6,24.6,09.0,0000.0,0003.62,0001.59,0001.28
2022-01-24 13:35:00,,0821.8,5.00,0.00,22.7,22.2,00.0,31.6,24.5,09.0,0000.0,0003.61,0001.64,0001.36
2022-01-24 13:36:00,,0821.8,5.00,0.00,22.7,22.2,00.0,31.6,24.5,09.0,0000.0,0003.75,0001.69,0001.40
2022-01-24 13:37:00,,0822.0,4.99,0.00,22.7,22.1,00.0,31.6,24.5,08.9,0000.0,0002.91,0001.68,0001.40
2022-01-24 13:38:00,,0822.1,5.00,0.00,22.7,22.1,00.0,31.6,24.5,08.9,0000.0,0002.57,0001.69,0001.42
2022-01-24 13:39:00,,0821.8,5.00,0.00,22.7,22.1,00.0,31.6,24.5,08.9,0000.0,0002.54,0001.71,0001.48
2022-01-24 13:40:00,,0821.9,4.99,0.00,22.7,22.0,00.0,31.6,24.4,08.8,0000.0,0002.46,0001.70,0001.50
2022-01-24 13:41:00,,0822.0,5.01,0.00,22.7,22.0,00.0,31.6,24.4,08.7,0000.0,0002.39,0001.66,0001.49
2022-01-24 13:42:00,,0821.9,5.00,0.00,22.6,22.0,00.0,31.6,24.4,08.7,0000.0,0002.33,0001.61,0001.47
2022-01-24 13:43:00,,0822.0,5.01,0.00,22.6,22.0,00.0,31.6,24.4,08.9,0000.0,0002.12,0001.62,0001.51
2022-01-24 13:44:00,,0822.0,5.02,0.00,22.6,21.9,00.0,31.6,24.4,09.3,0000.0,0002.26,0001.75,0001.61
2022-01-24 13:45:00,,0822.0,5.00,0.00,22.6,21.9,00.0,31.6,24.4,09.4,0000.0,0002.56,0001.90,0001.73
2022-01-24 13:46:00,,0822.0,5.00,0.00,22.6,21.9,00.0,31.6,24.4,09.5,0000.0,0002.66,0002.01,0001.84
2022-01-24 13:47:00,,0822.0,5.00,0.00,22.6,21.9,00.0,31.6,24.3,09.5,0000.0,0002.68,0002.11,0001.97
2022-01-24 13:48:00,,0822.0,5.00,0.00,22.6,21.9,00.0,31.6,24.3,09.5,0000.0,0002.83,0002.29,0002.13
2022-01-24 13:49:00,,0822.0,5.00,0.00,22.6,21.9,00.0,31.6,24.3,09.5,0000.0,0003.05,0002.49,0002.31
2022-01-24 13:50:00,,0822.1,5.00,0.00,22.6,21.9,00.0,31.5,24.3,09.5,0000.0,0003.23,0002.66,0002.46
2022-01-24 13:51:00,,0822.1,5.02,0.00,22.6,21.9,00.0,31.5,24.3,09.4,0000.0,0004.02,0002.83,0002.61
2022-01-24 13:52:00,,0822.0,5.00,0.00,22.6,21.9,00.0,31.5,24.3,09.5,0000.0,0004.66,0003.06,0002.82
2022-01-24 13:53:00,,0822.1,5.00,0.00,22.5,21.9,00.0,31.5,24.3,09.5,0000.0,0004.90,0003.20,0003.01
2022-01-24 13:54:00,,0822.1,5.00,0.00,22.5,21.8,00.0,31.5,24.3,09.5,0000.0,0004.96,0003.28,0003.14
2022-01-24 13:55:00,,0822.1,5.00,0.00,22.5,21.8,00.0,31.5,24.3,09.5,0000.0,0005.07,0003.33,0003.19
2022-01-24 13:56:00,,0822.1,5.00,0.00,22.5,21.8,00.0,31.5,24.3,09.6,0000.0,0005.09,0003.36,0003.22
2022-01-24 13:57:00,,0822.1,5.00,0.00,22.5,21.8,00.0,31.5,24.3,09.6,0000.0,0005.22,0003.40,0003.25
2022-01-24 13:58:00,,0822.1,5.00,0.00,22.5,21.8,00.0,31.5,24.3,09.6,0000.0,0005.55,0003.43,0003.26
2022-01-24 13:59:00,,0822.1,5.00,0.00,22.5,21.8,00.0,31.5,24.3,09.6,0000.0,0005.63,0003.44,0003.26
